Flag for Kazakhstan Weather past 2 weeks in Shymkent, Kazakhstan

Now
57 °F

Mostly cloudy.


Feels Like: 56 °F
Forecast: 49 / 72 °F
Wind: 6 mph from Southeast

Location: Shymkent Airport

Current Time: Oct 1, 2014 at 11:01:38 PM

Latest Report: Oct 1, 2014 at 10:30 PM


Visibility: N/A

Pressure: 30.12 "Hg

Humidity: 72%

Dew point: 48 °F

Location of ShymkentLocation

Historic Weather in Shymkent — Graph

°F

Shymkent temperature yesterday

Maximum temperature yesterday: 88 °F (at 3:00 PM)
Minimum temperature yesterday: 54 °F (at 4:00 AM)
Average temperature yesterday: 71 °F

Past Weeks' High & Low Weather Summary

 TemperatureHumidityPressure
High95 °F (Sep 17, 3:00 PM)88% (Sep 27, 12:30 PM)30.33 "Hg (Sep 27, 12:30 PM)
Low39 °F (Sep 20, 6:30 AM)6% (Sep 21, 4:00 PM)29.65 "Hg (Sep 18, 12:00 AM)
Average67 °F34%29.96 "Hg
* Reported Sep 16 10:00 PM — Oct 1 10:00 PM, Shymkent, Weather by CustomWeather, © 2014

Note: Actual official high and low records may vary slightly from our data, if they occured in-between our weather recording intervals... More about our weather records

Advertising

Shymkent weather history for previous 24 hours

 ConditionsComfort  
Time TempWeatherWind HumidityBarometerVisibility
10:00 PM
Oct 1
59 °FThundershowers. Mostly cloudy.1 mph68%30.15 "HgN/A
9:30 PM59 °FThunderstorms. Mostly cloudy.3 mph63%30.15 "HgN/A
9:00 PM59 °FThundershowers. Mostly cloudy.3 mph59%30.15 "HgN/A
8:30 PM61 °FThundershowers. Mostly cloudy.1 mph48%30.12 "HgN/A
8:00 PM59 °FThundershowers. Mostly cloudy.1 mph55%30.12 "HgN/A
7:30 PM61 °FOvercast.3 mph52%30.12 "HgN/A
7:00 PM63 °FOvercast.1 mph49%30.12 "HgN/A
6:30 PM64 °FOvercast.1 mph43%30.12 "HgN/A
6:00 PM64 °FOvercast.1 mph43%30.12 "HgN/A
5:30 PM64 °FOvercast.1 mph43%30.12 "HgN/A
5:00 PM66 °FOvercast.1 mph40%30.15 "HgN/A
4:30 PM64 °FSunny.1 mph40%30.15 "Hg10 mi
4:00 PM66 °FPassing clouds.3 mph37%30.15 "HgN/A
3:30 PM64 °FPassing clouds.6 mph43%30.15 "HgN/A
3:00 PM64 °FPassing clouds.6 mph43%30.15 "HgN/A
2:30 PM66 °FPassing clouds.6 mph40%30.15 "HgN/A
2:00 PM66 °FSunny.3 mph46%30.15 "Hg10 mi
1:30 PM64 °FSunny.1 mph49%30.18 "Hg10 mi
1:00 PM61 °FSunny.1 mph59%30.18 "Hg10 mi
12:30 PM61 °FPassing clouds.3 mph59%30.18 "HgN/A
12:00 PM59 °FSunny.1 mph63%30.18 "Hg10 mi
11:30 AM57 °FPassing clouds.3 mph67%30.21 "HgN/A
11:00 AM54 °FBroken clouds.3 mph77%30.21 "HgN/A
10:30 AM52 °FMostly cloudy.1 mph77%30.21 "HgN/A
10:00 AM52 °FMostly cloudy.1 mph77%30.21 "HgN/A
9:30 AM50 °FMostly cloudy.3 mph82%30.21 "HgN/A
9:00 AM50 °FLow clouds.3 mph76%30.21 "HgN/A
8:30 AM50 °FMostly cloudy.3 mph76%30.18 "HgN/A
8:00 AM50 °FOvercast.1 mph76%30.18 "HgN/A
7:30 AM50 °FMore clouds than sun.3 mph82%30.18 "HgN/A
7:00 AM50 °FOvercast.3 mph82%30.18 "HgN/A
6:30 AM50 °FMostly cloudy.6 mph82%30.18 "HgN/A
6:00 AM50 °FMostly cloudy.3 mph82%30.15 "HgN/A
5:30 AM50 °FMostly cloudy.3 mph82%30.15 "HgN/A
5:00 AM52 °FMostly cloudy.6 mph77%30.15 "HgN/A
4:30 AM52 °FMostly cloudy.6 mph82%30.12 "HgN/A
4:00 AM54 °FMostly cloudy.6 mph77%30.12 "HgN/A
3:30 AM55 °FMostly cloudy.8 mph77%30.12 "HgN/A
3:00 AM57 °FMostly cloudy.8 mph72%30.09 "HgN/A
2:30 AM57 °FMostly cloudy.6 mph77%30.09 "HgN/A
2:00 AM59 °FMostly cloudy.6 mph77%30.07 "HgN/A
1:30 AM61 °FSprinkles. Mostly cloudy.6 mph72%30.07 "HgN/A
1:00 AM61 °FSprinkles. Mostly cloudy.1 mph68%30.07 "HgN/A
12:30 AM61 °FSprinkles. Mostly cloudy.1 mph68%30.07 "HgN/A
12:00 AM63 °FMostly cloudy.1 mph64%30.04 "HgN/A
11:30 PM
Sep 30
66 °FMostly cloudy.10 mph52%30.04 "HgN/A
11:00 PM68 °FMostly cloudy.6 mph60%30.01 "HgN/A
Weather by CustomWeather, © 2014

See weather overviewHow to use our weather pages